User: anonymous   Login
Location: Copper Breaks State Park
(34.1132°N, 99.7492°W)
Time: 01:37:22
(UTC-05:00)
Language:

SL-16 R/B - Orbit

View from above orbital plane
View from above orbital plane
View from above satellite
View from above satellite

Ground track
Ground track

The orbit data is extracted from the following two-line orbital elements,

1 27006U 01056F   15126.51534510  .00000013  00000-0  61769-4 0  9993
2 27006 099.2017 285.0825 0014957 163.1912 272.2428 13.70953795670621
Epoch (UTC): 06 May 2015 12:22:05
Eccentricity: 0.0014957
inclination: 99.2017°
perigee height: 985 km
apogee height: 1007 km
right ascension of ascending node: 285.0825°
argument of perigee: 163.1912°
revolutions per day: 13.70953795
mean anomaly at epoch: 272.2428°
orbit number at epoch: 67062

The dashed part of the orbit path shows where the satellite is in the earth's shadow,  

DLR